Weather History for Destin, FL

Change the Weather History Date:

Saturday, September 21, 2013

  Actual Average Record
Temperature  
Mean Temperature 78 °F -  
Max Temperature 84 °F 83 °F 95 °F (1997)
Min Temperature 73 °F 68 °F 66 °F (1999)
Cooling Degree Days 14    
Growing Degree Days 28 (Base 50)    
Moisture  
Dew Point 73 °F    
Average Humidity 84    
Maximum Humidity 94    
Minimum Humidity 65    
Precipitation  
Precipitation 1.42 in - - ()
Sea Level Pressure  
Sea Level Pressure 29.80 in    
Wind  
Wind Speed 8 mph (West)    
Max Wind Speed 16 mph    
Max Gust Speed 26 mph    
Visibility 8 miles    
Events Fog , Rain , Thunderstorm    
Averages and records for this station are not official NWS values.
T = Trace of Precipitation, MM = Missing Value Source: NWS Daily Summary

Daily Weather History Graph

Daily Weather History Graph

Search for Another Location

Airport:

Trip Planner

Search our weather history database for the weather conditions in past years. The results will help you decide how hot, cold, wet, or windy it might be!

Date:

Astronomy

Sep. 21, 2013 Rise Set
Actual Time 6:33 AM CDT 6:43 PM CDT
Civil Twilight 6:09 AM CDT 7:07 PM CDT
Nautical Twilight 5:41 AM CDT 7:35 PM CDT
Astronomical Twilight 5:13 AM CDT 8:03 PM CDT
Moon 8:07 PM CDT 8:39 AM CDT
Length of Visible Light 12h 57m
Length of Day
12h 09m
Waning Gibbous, 94% of the Moon is Illuminated
Sep 21
Waning Gibbous
Sep 26
Last Quarter
Oct 4
New
Oct 11
First Quarter
Oct 18
Full

Hourly Weather History & Observations

Time (CDT) Temp. Heat Index Dew Point Humidity Pressure Visibility Wind Dir Wind Speed Gust Speed Precip Events Conditions
12:53 AM 82.9 °F 89.4 °F 73.9 °F 74% 29.86 in 10.0 mi SSE 10.4 mph 17.3 mph N/A   Partly Cloudy
1:53 AM 82.9 °F 89.4 °F 73.9 °F 74% 29.85 in 10.0 mi SSE 11.5 mph 19.6 mph N/A   Partly Cloudy
2:53 AM 82.9 °F 88.8 °F 73.0 °F 72% 29.83 in 10.0 mi SSE 11.5 mph 23.0 mph N/A   Scattered Clouds
3:53 AM 82.9 °F 88.8 °F 73.0 °F 72% 29.82 in 10.0 mi SSE 8.1 mph 16.1 mph N/A   Partly Cloudy
4:53 AM 82.9 °F 88.8 °F 73.0 °F 72% 29.81 in 10.0 mi South 9.2 mph - N/A   Scattered Clouds
5:53 AM 82.9 °F 88.8 °F 73.0 °F 72% 29.82 in 10.0 mi South 8.1 mph 18.4 mph N/A   Mostly Cloudy
6:53 AM 84.0 °F 89.0 °F 71.1 °F 65% 29.82 in 10.0 mi South 10.4 mph 19.6 mph N/A   Partly Cloudy
7:53 AM 84.0 °F 90.2 °F 73.0 °F 69% 29.82 in 10.0 mi Variable 6.9 mph 17.3 mph N/A   Mostly Cloudy
8:29 AM 78.8 °F - 73.4 °F 83% 29.84 in 2.5 mi SW 11.5 mph 26.5 mph 0.03 in Rain Heavy Rain
8:53 AM 78.1 °F - 73.9 °F 87% 29.85 in 6.0 mi SSW 5.8 mph - 0.07 in Rain Light Rain
9:50 AM 80.6 °F 86.2 °F 75.2 °F 84% 29.83 in 10.0 mi South 10.4 mph 21.9 mph 0.03 in   Overcast
9:53 AM 80.1 °F 85.1 °F 75.0 °F 85% 29.83 in 10.0 mi South 9.2 mph 20.7 mph 0.03 in   Overcast
10:07 AM 80.6 °F 86.2 °F 75.2 °F 84% 29.84 in 10.0 mi Variable 5.8 mph - N/A Thunderstorm Overcast
10:37 AM 80.6 °F 85.4 °F 73.4 °F 79% 29.84 in 10.0 mi Variable 6.9 mph - N/A Thunderstorm Thunderstorm
10:53 AM 78.1 °F - 72.0 °F 81% 29.85 in 10.0 mi NNW 6.9 mph - N/A Thunderstorm Overcast
11:05 AM 75.2 °F - 71.6 °F 89% 29.85 in 10.0 mi NNE 6.9 mph - N/A   Overcast
11:15 AM 75.2 °F - 71.6 °F 89% 29.83 in 10.0 mi North 6.9 mph - N/A   Overcast
11:34 AM 77.0 °F - 71.6 °F 83% 29.85 in 1.2 mi NW 8.1 mph - 0.12 in Rain Light Rain
11:38 AM 75.2 °F - 71.6 °F 89% 29.84 in 0.5 mi NNW 10.4 mph - 0.41 in Fog , Rain Heavy Rain
11:45 AM 73.4 °F - 69.8 °F 88% 29.84 in 0.2 mi North 8.1 mph - 0.68 in Fog , Rain Heavy Rain
11:53 AM 73.9 °F - 70.0 °F 87% 29.83 in 1.0 mi NW 8.1 mph 19.6 mph 0.82 in Rain Heavy Rain
12:09 PM 75.2 °F - 73.4 °F 94% 29.81 in 5.0 mi NW 3.5 mph - 0.08 in Rain Light Rain
12:18 PM 75.2 °F - 73.4 °F 94% 29.81 in 10.0 mi WSW 3.5 mph - 0.08 in Rain Light Rain
12:53 PM 79.0 °F - 73.9 °F 84% 29.80 in 10.0 mi SSW 3.5 mph - 0.08 in   Mostly Cloudy
1:53 PM 80.1 °F 83.6 °F 71.1 °F 74% 29.78 in 10.0 mi Calm Calm - 0.01 in Rain Light Rain
2:53 PM 82.0 °F 88.6 °F 75.0 °F 79% 29.76 in 10.0 mi South 3.5 mph - 0.00 in   Scattered Clouds
3:14 PM 78.8 °F - 73.4 °F 83% 29.76 in 2.5 mi NNW 16.1 mph 23.0 mph 0.10 in Rain Light Rain
3:20 PM 75.2 °F - 71.6 °F 89% 29.77 in 1.0 mi NNW 12.7 mph 23.0 mph 0.19 in Rain , Thunderstorm Heavy Thunderstorms and Rain
3:27 PM 75.2 °F - 71.6 °F 89% 29.77 in 1.0 mi NW 8.1 mph - 0.30 in Rain , Thunderstorm Heavy Thunderstorms and Rain
3:37 PM 75.2 °F - 73.4 °F 94% 29.76 in 2.0 mi North 5.8 mph - 0.33 in Rain , Thunderstorm Rain
3:43 PM 75.2 °F - 73.4 °F 94% 29.76 in 5.0 mi NW 4.6 mph - 0.33 in Rain , Thunderstorm Rain
3:49 PM 75.2 °F - 73.4 °F 94% 29.76 in 6.0 mi NW 4.6 mph - 0.34 in Rain Light Rain
3:50 PM 75.9 °F - 73.0 °F 91% 29.76 in 6.0 mi NW 3.5 mph - 0.34 in Rain Rain
4:53 PM 77.0 °F - 73.9 °F 90% 29.75 in 10.0 mi Calm Calm - 0.03 in   Scattered Clouds
5:53 PM 77.0 °F - 73.0 °F 88% 29.75 in 10.0 mi Calm Calm - N/A   Overcast
6:53 PM 75.9 °F - 73.0 °F 91% 29.75 in 10.0 mi Calm Calm - 0.04 in Rain Light Rain
7:53 PM 75.9 °F - 73.0 °F 91% 29.75 in 10.0 mi Calm Calm - 0.00 in   Scattered Clouds
8:53 PM 75.9 °F - 73.0 °F 91% 29.76 in 10.0 mi Calm Calm - 0.00 in   Partly Cloudy
9:53 PM 75.9 °F - 73.9 °F 94% 29.77 in 10.0 mi Calm Calm - N/A   Clear
10:53 PM 75.9 °F - 73.0 °F 91% 29.77 in 10.0 mi Calm Calm - N/A   Mostly Cloudy
11:53 PM 75.9 °F - 73.0 °F 91% 29.76 in 10.0 mi Calm Calm - 0.00 in   Overcast